Tracking 29892 objects as of 21-Nov-2024
HD Live streaming from Space Station
objects crossing your sky now

STARLINK-5599

Track STARLINK-5599 now!
10-day predictions
STARLINK-5599 is classified as:


NORAD ID: 55766
Int'l Code: 2023-028AB
Perigee: 577.2 km
Apogee: 581.1 km
Inclination: 70.0 °
Period: 96.1 minutes
Semi major axis: 6950 km
RCS: Unknown
Launch date: March 3, 2023
Source: United States (US)
Launch site: AIR FORCE WESTERN TEST RANGE (AFWTR)
Your satellite tracking list
Your tracking list is empty




NASA's NSSDC Master Catalog

Two Line Element Set (TLE):
1 55766U 23028AB  24325.10208700 -.00000728  00000-0 -53188-4 0  9996
2 55766  69.9995 341.0901 0002832 269.0786  91.0049 14.98339159 95435
Source of the keplerian elements: AFSPC